Preview of NWS' New Version of Forecast
This preview is not operational and should not be used for support decisions.

Regional Weather Roundup (RWR)

Issued by National Weather Service (NWS)

                            
000
ASUS44 KJAN 181910
RWRMS 

MISSISSIPPI HOURLY WEATHER ROUNDUP
NATIONAL WEATHER SERVICE JACKSON MS
100 PM CST MON FEB 18 2019

NOTE: "FAIR: INDICATES FEW OR NO CLOUDS BELOW 12,000 FEET WITH NO
SIGNIFICANT WEATHER AND/OR OBSTRUCTIONS TO VISIBILITY.

MSZ001>002-007>008-010>013-018>021-025>028-034>036-182000-
NORTHWEST MISSISSIPPI
  
CITY           SKY/WX    TMP DP  RH WIND       PRES   REMARKS
BATESVILLE     FAIR      41  28  60 VRB7G14   30.34F                  
CLARKSDALE     SUNNY     41  30  65 N13G20    30.37F                  
CLEVELAND      FAIR      38  29  70 N15       30.35F WCI  30          
GREENWOOD      FAIR      43  29  57 NE8       30.33S                  
GREENVILLE     FAIR      39  29  67 N17       30.34F WCI  30          
OLIVE BRANCH   PTSUNNY   41  25  52 N13G18    30.36F                  
OXFORD         FAIR      39  27  60 N10       30.35F WCI  32          
TUNICA           N/A     37  28  70 N16       30.38F WCI  28          
WINONA         FAIR      42  31  64 N8        30.31F                  
$$

MSZ003>006-009-014>017-022>024-029>033-037>039-182000-
NORTHEAST MISSISSIPPI
  
CITY           SKY/WX    TMP DP  RH WIND       PRES   REMARKS
ABERDEEN       FAIR      43  37  81 N9G17     30.32F                  
COLUMBUS AFB   FAIR      46  34  61 N7        30.29F                  
CORINTH        FAIR      43  28  56 N12       30.34F                  
GOLDN TRIANGLE FAIR      47  36  65 NW8       30.31S                  
STARKVILLE     FAIR      43  34  70 NE6       30.33S                  
TUPELO         FAIR      42  29  59 N14       30.32F                  
$$

MSZ040-058-182000-
CENTRAL MISSISSIPPI
  
CITY           SKY/WX    TMP DP  RH WIND       PRES   REMARKS
JACKSON INTL   PTSUNNY   50  35  56 N12       30.27F                  
JACKSON HAWKNS FAIR      52  36  54 N8        30.27F                  
MADISON        FAIR      48  36  61 N6        30.26F                  
MERIDIAN KEY   FAIR      55  32  41 N16       30.24F                  
MERIDIAN NAS   FAIR      52  35  52 N10       30.26F                  
RAYMOND          N/A     54  36  50 NE8G17    30.26F                  
VICKSBURG VKS  CLEAR     48  36  61 N13       30.28F                  
$$

MSZ059>079-182000-
SOUTH MISSISSIPPI
  
CITY           SKY/WX    TMP DP  RH WIND       PRES   REMARKS
HATTIESBURG    CLOUDY    57  32  38 NE12      30.21F                  
LAUREL         MOCLDY    54  31  40 NE12G17   30.23F                  
MCCOMB         FAIR      55  29  36 VRB7      30.20F                  
NATCHEZ        FAIR      52  36  54 N15       30.23F                  
PINE BELT      CLOUDY    56  34  43 N12       30.22F                  
$$

MSZ080>082-182000-
COASTAL MISSISSIPPI
  
CITY           SKY/WX    TMP DP  RH WIND       PRES   REMARKS
BAY ST LOUIS   PTSUNNY   55  39  54 NE15      30.18F                  
BILOXI         CLOUDY    51  46  82 NE14      30.15F                  
PASCAGOULA     CLOUDY    52  46  80 NE8G17    30.16F                  
GULFPORT       LGT RAIN  52  47  83 N6        30.16F                  
$$

LAZ007>009-015>016-023>026-182000-
NORTHEAST LOUISIANA
  
CITY           SKY/WX    TMP DP  RH WIND       PRES   REMARKS
BASTROP        FAIR      43  27  52 NE8       30.34F                  
TALLULAH/VBURG FAIR      46  35  65 N17       30.30F                  
VIDALIA        FAIR      51  34  52 NE15G23   30.23F                  
$$